User: anonymous   Login
Location: Unspecified
(0.0000°N, 0.0000°E)
Time: 16:19:22
(UTC+00:00)
Language:

KANOPUS-V-IK - Orbit

View from above orbital plane
View from above orbital plane
View from above satellite
View from above satellite

Ground track
Ground track

The orbit data is extracted from the following two-line orbital elements,

1 42825U 17042A   17230.50301170  .00000261  00000-0  15531-4 0  9993
2 42825  97.4329 139.5099 0001266  45.7690 314.3648 15.19396187  5351
Epoch (UTC): 18 August 2017 12:04:20
Eccentricity: 0.0001266
inclination: 97.4329°
perigee height: 507 km
apogee height: 508 km
right ascension of ascending node: 139.5099°
argument of perigee: 45.7690°
revolutions per day: 15.19396187
mean anomaly at epoch: 314.3648°
orbit number at epoch: 535

The dashed part of the orbit path shows where the satellite is in the earth's shadow,  

DLR